Flag for USA

Past Weather in Middletown, Orange Co., New York, USA — Yesterday and Last 2 Weeks

Now
49 °F

Fog.


Feels Like: 49 °F
Forecast: 55 / 44 °F
Wind: No wind

Location: Orange County Airport
Current Time: Oct 26, 2020 at 11:01:05 pm
Latest Report: Oct 26, 2020 at 10:12 pm
Visibility: 2 mi
Pressure30.10 "Hg
Humidity: 100%
Dew Point: 49 °F
Location of Middletown, Orange Co.Location

Past Weather in Middletown, Orange Co. — Graph

°F

Middletown, Orange Co. Temperature Yesterday

Maximum temperature yesterday: 49 °F (at 2:54 pm)
Minimum temperature yesterday: 35 °F (at 6:54 am)
Average temperature yesterday: 43 °F

High & Low Weather Summary for the Past Weeks

 TemperatureHumidityPressure
High74 °F (Oct 22, 3:54 pm)100% (Oct 13, 8:54 am)30.50 "Hg (Oct 13, 8:54 am)
Low28 °F (Oct 18, 6:01 am)29% (Oct 17, 2:54 pm)29.86 "Hg (Oct 13, 5:14 pm)
Average53 °F86%30.15 "Hg
* Reported Oct 11 10:17 pm — Oct 26 10:12 pm, Middletown, Orange Co.. Weather by CustomWeather, © 2020

Note: Actual official high and low records may vary slightly from our data, if they occured in-between our weather recording intervals... More about our weather records

Middletown, Orange Co. Weather History for the Previous 24 Hours

Scroll right to see more
 ConditionsComfort  
Time TempWeatherWind HumidityBarometerVisibility
10:12 pm
Mon, Oct 26
49 °FFog.No wind100%30.10 "Hg2 mi
9:54 pm49 °FFog.No wind100%30.10 "Hg5 mi
9:18 pm49 °FFog.No wind100%30.10 "Hg4 mi
8:54 pm49 °FFog.No wind100%30.10 "Hg3 mi
7:54 pm49 °FLow clouds.No wind100%30.11 "Hg10 mi
6:54 pm49 °FLow clouds.No wind97%30.11 "Hg8 mi
5:54 pm48 °FLight rain. Fog.No wind100%30.10 "Hg4 mi
4:54 pm48 °FFog.5 mph100%30.11 "Hg5 mi
3:54 pm48 °FFog.6 mph96%30.12 "Hg4 mi
2:54 pm48 °FFog.5 mph96%30.12 "Hg2 mi
1:54 pm48 °FLow clouds.6 mph93%30.15 "Hg10 mi
12:54 pm48 °FLow clouds.6 mph93%30.18 "Hg7 mi
11:54 am46 °FLight rain. Fog.7 mph96%30.21 "Hg3 mi
11:40 am46 °FLight rain. Fog.6 mph96%30.21 "Hg2 mi
11:24 am45 °FLight rain. Fog.7 mph100%30.22 "Hg3 mi
11:02 am45 °FLight rain. Fog.7 mph100%30.20 "Hg2 mi
10:54 am45 °FLight rain. Fog.7 mph97%30.20 "Hg2 mi
10:39 am45 °FLight rain. Fog.7 mph97%30.21 "Hg2 mi
9:54 am44 °FLight rain. Fog.7 mph96%30.23 "Hg2 mi
8:54 am43 °FLight rain. Fog.8 mph100%30.23 "Hg2 mi
7:54 am43 °FLight rain. Fog.7 mph97%30.23 "Hg4 mi
7:33 am43 °FLight rain. Fog.7 mph97%30.22 "Hg2 mi
6:54 am43 °FLight rain. Fog.7 mph97%30.23 "Hg5 mi
6:10 am43 °FLight rain. Fog.8 mph97%30.23 "Hg6 mi
5:54 am42 °FLight rain. Fog.8 mph100%30.22 "Hg6 mi
4:54 am42 °FLight rain. Fog.9 mph96%30.24 "Hg3 mi
3:54 am42 °FRain. Fog.9 mph96%30.23 "Hg3 mi
3:30 am42 °FLight rain. Fog.7 mph96%30.23 "Hg4 mi
2:54 am42 °FLight rain. Fog.8 mph96%30.25 "Hg3 mi
2:36 am41 °FLight rain. Fog.7 mph100%30.25 "Hg4 mi
1:54 am41 °FLight rain. Fog.9 mph96%30.26 "Hg6 mi
12:54 am42 °FOvercast.7 mph89%30.27 "Hg10 mi
11:54 pm
Sun, Oct 25
42 °FLight rain. Overcast.7 mph89%30.27 "Hg10 mi
Weather by CustomWeather, © 2020

See weather overview